| time (UTC) | temp C | wind direction | speed KPH | gust KPH | rain 1hr cm | rain 24hr cm | rain mn cm | humidity % | barometer mb |
| 20260505212532 | 25 | 0 | 1.6 | 8.0 | 0.00 | 0.00 | 0.00 | 44 | 1014.0 |
| 20260505212034 | 25 | 0 | 0.0 | 6.4 | 0.00 | 0.00 | 0.00 | 49 | 1013.9 |
| 20260505211542 | 25 | 0 | 0.0 | 6.4 | 0.00 | 0.00 | 0.00 | 46 | 1014.0 |
| 20260505211033 | 25 | 0 | 0.0 | 6.4 | 0.00 | 0.00 | 0.00 | 45 | 1014.0 |
| 20260505210531 | 25 | 0 | 0.0 | 6.4 | 0.00 | 0.00 | 0.00 | 44 | 1014.1 |
| 20260505210042 | 25 | 0 | 0.0 | 4.8 | 0.00 | 0.00 | 0.00 | 44 | 1014.1 |
| 20260505205530 | 25 | 0 | 0.0 | 8.0 | 0.00 | 0.00 | 0.00 | 46 | 1014.1 |
| 20260505205034 | 25 | 0 | 0.0 | 14.5 | 0.00 | 0.00 | 0.00 | 44 | 1014.1 |
| 20260505204553 | 25 | 0 | 0.0 | 14.5 | 0.00 | 0.00 | 0.00 | 44 | 1014.2 |
| 20260505204031 | 25 | 0 | 0.0 | 12.9 | 0.00 | 0.00 | 0.00 | 43 | 1014.2 |
| 20260505203531 | 25 | 0 | 0.0 | 12.9 | 0.00 | 0.00 | 0.00 | 46 | 1014.3 |
| 20260505203052 | 25 | 187 | 1.6 | 12.9 | 0.00 | 0.00 | 0.00 | 42 | 1014.4 |
| 20260505202532 | 25 | 0 | 0.0 | 12.9 | 0.00 | 0.00 | 0.00 | 44 | 1014.3 |
| 20260505202033 | 25 | 0 | 0.0 | 12.9 | 0.00 | 0.00 | 0.00 | 44 | 1014.3 |
| 20260505201547 | 25 | 292 | 0.0 | 14.5 | 0.00 | 0.00 | 0.00 | 44 | 1014.4 |
| 20260505201033 | 25 | 0 | 0.0 | 14.5 | 0.00 | 0.00 | 0.00 | 43 | 1014.5 |
| 20260505200532 | 25 | 0 | 1.6 | 11.3 | 0.00 | 0.00 | 0.00 | 42 | 1014.6 |
| 20260505200100 | 25 | 0 | 1.6 | 11.3 | 0.00 | 0.00 | 0.00 | 43 | 1014.7 |
| 20260505195533 | 25 | 84 | 0.0 | 14.5 | 0.00 | 0.00 | 0.00 | 42 | 1014.8 |
| 20260505195037 | 25 | 0 | 1.6 | 14.5 | 0.00 | 0.00 | 0.00 | 43 | 1014.9 |
| 20260505194548 | 25 | 0 | 1.6 | 11.3 | 0.00 | 0.00 | 0.00 | 45 | 1015.0 |
| 20260505194033 | 25 | 28 | 0.0 | 14.5 | 0.00 | 0.00 | 0.00 | 40 | 1014.9 |
| 20260505193531 | 25 | 0 | 0.0 | 14.5 | 0.00 | 0.00 | 0.00 | 42 | 1014.9 |
| 20260505193048 | 25 | 0 | 0.0 | 14.5 | 0.00 | 0.00 | 0.00 | 39 | 1015.2 |
| 20260505192535 | 25 | 352 | 0.0 | 6.4 | 0.00 | 0.00 | 0.00 | 40 | 1015.2 |
| 20260505192032 | 25 | 0 | 0.0 | 4.8 | 0.00 | 0.00 | 0.00 | 42 | 1015.4 |
| 20260505191542 | 25 | 213 | 0.0 | 8.0 | 0.00 | 0.00 | 0.00 | 39 | 1015.5 |
| 20260505191033 | 25 | 0 | 0.0 | 8.0 | 0.00 | 0.00 | 0.00 | 44 | 1015.5 |
| 20260505190529 | 25 | 0 | 0.0 | 8.0 | 0.00 | 0.00 | 0.00 | 43 | 1015.4 |
| 20260505190042 | 24 | 0 | 0.0 | 8.0 | 0.00 | 0.00 | 0.00 | 44 | 1015.4 |
| 20260505185533 | 24 | 0 | 0.0 | 17.7 | 0.00 | 0.00 | 0.00 | 43 | 1015.5 |
| 20260505185032 | 24 | 314 | 3.2 | 17.7 | 0.00 | 0.00 | 0.00 | 43 | 1015.6 |
| 20260505184541 | 24 | 240 | 3.2 | 17.7 | 0.00 | 0.00 | 0.00 | 43 | 1015.7 |
| 20260505184032 | 24 | 0 | 4.8 | 12.9 | 0.00 | 0.00 | 0.00 | 43 | 1015.6 |
| 20260505183532 | 24 | 223 | 0.0 | 19.3 | 0.00 | 0.00 | 0.00 | 45 | 1015.7 |
| 20260505183047 | 24 | 0 | 3.2 | 19.3 | 0.00 | 0.00 | 0.00 | 43 | 1015.7 |
| 20260505182533 | 25 | 184 | 1.6 | 14.5 | 0.00 | 0.00 | 0.00 | 43 | 1015.8 |
| 20260505182032 | 25 | 279 | 1.6 | 12.9 | 0.00 | 0.00 | 0.00 | 43 | 1016.0 |
| 20260505181543 | 25 | 0 | 1.6 | 16.1 | 0.00 | 0.00 | 0.00 | 43 | 1015.9 |
| 20260505181036 | 25 | 0 | 0.0 | 16.1 | 0.00 | 0.00 | 0.00 | 44 | 1016.1 |
| 20260505180533 | 25 | 306 | 0.0 | 19.3 | 0.00 | 0.00 | 0.00 | 44 | 1016.3 |
| 20260505180103 | 25 | 0 | 0.0 | 20.9 | 0.00 | 0.00 | 0.00 | 44 | 1016.2 |
| 20260505175533 | 25 | 231 | 4.8 | 20.9 | 0.00 | 0.00 | 0.00 | 41 | 1016.3 |
| 20260505175036 | 25 | 292 | 1.6 | 16.1 | 0.00 | 0.00 | 0.00 | 43 | 1016.4 |
| 20260505174558 | 25 | 32 | 3.2 | 16.1 | 0.00 | 0.00 | 0.00 | 44 | 1016.4 |
| 20260505174033 | 25 | 250 | 0.0 | 14.5 | 0.00 | 0.00 | 0.00 | 43 | 1016.4 |
| 20260505173533 | 24 | 360 | 0.0 | 11.3 | 0.00 | 0.00 | 0.00 | 42 | 1016.4 |
| 20260505173047 | 24 | 0 | 1.6 | 11.3 | 0.00 | 0.00 | 0.00 | 43 | 1016.4 |
| 20260505172534 | 24 | 296 | 1.6 | 12.9 | 0.00 | 0.00 | 0.00 | 44 | 1016.5 |
| 20260505172035 | 23 | 300 | 3.2 | 14.5 | 0.00 | 0.00 | 0.00 | 45 | 1016.5 |
| 20260505171547 | 23 | 240 | 4.8 | 14.5 | 0.00 | 0.00 | 0.00 | 41 | 1016.5 |
| 20260505171032 | 23 | 30 | 0.0 | 14.5 | 0.00 | 0.00 | 0.00 | 46 | 1016.4 |
| 20260505170529 | 23 | 0 | 0.0 | 14.5 | 0.00 | 0.00 | 0.00 | 45 | 1016.5 |
| 20260505170048 | 23 | 266 | 1.6 | 19.3 | 0.00 | 0.00 | 0.00 | 46 | 1016.4 |
| 20260505165533 | 23 | 216 | 1.6 | 19.3 | 0.00 | 0.00 | 0.00 | 48 | 1016.6 |
| 20260505165033 | 23 | 339 | 0.0 | 11.3 | 0.00 | 0.00 | 0.00 | 50 | 1016.6 |
| 20260505164547 | 23 | 0 | 1.6 | 11.3 | 0.00 | 0.00 | 0.00 | 46 | 1016.6 |
| 20260505164031 | 23 | 0 | 0.0 | 11.3 | 0.00 | 0.00 | 0.00 | 44 | 1016.5 |
| 20260505163533 | 23 | 0 | 0.0 | 11.3 | 0.00 | 0.00 | 0.00 | 47 | 1016.5 |
| 20260505163053 | 23 | 352 | 0.0 | 14.5 | 0.00 | 0.00 | 0.00 | 47 | 1016.6 |
| 20260505162532 | 23 | 49 | 0.0 | 14.5 | 0.00 | 0.00 | 0.00 | 47 | 1016.5 |
| 20260505162033 | 23 | 0 | 0.0 | 11.3 | 0.00 | 0.00 | 0.00 | 48 | 1016.4 |
| 20260505161554 | 22 | 0 | 0.0 | 11.3 | 0.00 | 0.00 | 0.00 | 49 | 1016.6 |
| 20260505161034 | 22 | 0 | 0.0 | 6.4 | 0.00 | 0.00 | 0.00 | 50 | 1016.7 |
| 20260505160533 | 22 | 0 | 0.0 | 8.0 | 0.00 | 0.00 | 0.00 | 51 | 1016.8 |
| 20260505153051 | 22 | 0 | 0.0 | 8.0 | 0.00 | 0.00 | 0.00 | 53 | 1017.0 |
| 20260505152535 | 22 | 0 | 0.0 | 8.0 | 0.00 | 0.00 | 0.00 | 56 | 1017.1 |
| 20260505152030 | 21 | 0 | 0.0 | 4.8 | 0.00 | 0.00 | 0.00 | 55 | 1017.1 |
| 20260505151548 | 21 | 0 | 0.0 | 4.8 | 0.00 | 0.00 | 0.00 | 55 | 1017.2 |
| 20260505151033 | 21 | 0 | 0.0 | 4.8 | 0.00 | 0.00 | 0.00 | 53 | 1017.2 |
| 20260505150534 | 21 | 0 | 0.0 | 4.8 | 0.00 | 0.00 | 0.00 | 58 | 1017.3 |
| 20260505140533 | 17 | 0 | 0.0 | 1.6 | 0.00 | 0.00 | 0.00 | 66 | 1016.8 |
| 20260505125031 | 12 | 0 | 0.0 | 4.8 | 0.00 | 0.00 | 0.00 | 82 | 1016.6 |
| 20260505124547 | 12 | 0 | 0.0 | 1.6 | 0.00 | 0.00 | 0.00 | 84 | 1016.7 |
| 20260505124035 | 11 | 0 | 0.0 | 1.6 | 0.00 | 0.00 | 0.00 | 87 | 1016.7 |
| 20260505123530 | 11 | 0 | 0.0 | 1.6 | 0.00 | 0.00 | 0.00 | 89 | 1016.8 |
| 20260505123054 | 10 | 0 | 0.0 | 1.6 | 0.00 | 0.00 | 0.00 | 91 | 1016.7 |
| 20260505122531 | 10 | 0 | 0.0 | 1.6 | 0.00 | 0.00 | 0.00 | 91 | 1016.6 |
| 20260505122035 | 9 | 0 | 0.0 | 0.0 | 0.00 | 0.00 | 0.00 | 92 | 1016.5 |
| 20260505121543 | 9 | 0 | 0.0 | 0.0 | 0.00 | 0.00 | 0.00 | 92 | 1016.5 |
| 20260505121031 | 9 | 0 | 0.0 | 1.6 | 0.00 | 0.00 | 0.00 | 92 | 1016.5 |
| 20260505120533 | 8 | 0 | 0.0 | 1.6 | 0.00 | 0.00 | 0.00 | 92 | 1016.5 |
| 20260505120049 | 8 | 0 | 0.0 | 1.6 | 0.00 | 0.00 | 0.00 | 92 | 1016.3 |
| 20260505115531 | 8 | 0 | 0.0 | 1.6 | 0.00 | 0.00 | 0.00 | 92 | 1016.3 |
| 20260505115033 | 8 | 0 | 0.0 | 1.6 | 0.00 | 0.00 | 0.00 | 92 | 1016.3 |
| 20260505114547 | 8 | 0 | 0.0 | 1.6 | 0.00 | 0.00 | 0.00 | 93 | 1016.3 |
| 20260505114030 | 8 | 0 | 0.0 | 1.6 | 0.00 | 0.00 | 0.00 | 93 | 1016.3 |
| 20260505113530 | 8 | 0 | 0.0 | 1.6 | 0.00 | 0.00 | 0.00 | 93 | 1016.3 |
| 20260505113046 | 8 | 0 | 0.0 | 1.6 | 0.00 | 0.00 | 0.00 | 93 | 1016.2 |
| 20260505112531 | 7 | 0 | 0.0 | 1.6 | 0.00 | 0.00 | 0.00 | 93 | 1016.2 |
| 20260505112032 | 7 | 0 | 0.0 | 1.6 | 0.00 | 0.00 | 0.00 | 93 | 1016.2 |
| 20260505111543 | 7 | 0 | 0.0 | 1.6 | 0.00 | 0.00 | 0.00 | 92 | 1016.1 |
| 20260505111031 | 7 | 0 | 0.0 | 1.6 | 0.00 | 0.00 | 0.00 | 92 | 1016.2 |
| 20260505110530 | 7 | 0 | 0.0 | 1.6 | 0.00 | 0.00 | 0.00 | 92 | 1016.1 |
| 20260505102032 | 8 | 0 | 0.0 | 1.6 | 0.00 | 0.00 | 0.00 | 90 | 1016.1 |
| 20260505101542 | 8 | 0 | 0.0 | 1.6 | 0.00 | 0.00 | 0.00 | 89 | 1016.0 |
| 20260505101032 | 8 | 0 | 0.0 | 1.6 | 0.00 | 0.00 | 0.00 | 89 | 1016.0 |
| 20260505100532 | 8 | 0 | 0.0 | 1.6 | 0.00 | 0.00 | 0.00 | 89 | 1016.0 |
| 20260505100047 | 8 | 0 | 0.0 | 3.2 | 0.00 | 0.00 | 0.00 | 89 | 1015.9 |
| 20260505095532 | 8 | 0 | 0.0 | 3.2 | 0.00 | 0.00 | 0.00 | 88 | 1015.8 |
| 20260505095036 | 8 | 0 | 0.0 | 1.6 | 0.00 | 0.00 | 0.00 | 88 | 1015.7 |
| 20260505094544 | 8 | 0 | 0.0 | 1.6 | 0.00 | 0.00 | 0.00 | 88 | 1015.8 |
| 20260505094032 | 9 | 0 | 0.0 | 3.2 | 0.00 | 0.00 | 0.00 | 87 | 1015.7 |
| 20260505093531 | 9 | 0 | 0.0 | 3.2 | 0.00 | 0.00 | 0.00 | 87 | 1015.8 |
| 20260505093048 | 9 | 98 | 0.0 | 3.2 | 0.00 | 0.00 | 0.00 | 87 | 1015.7 |
| 20260505092532 | 9 | 0 | 0.0 | 3.2 | 0.00 | 0.00 | 0.00 | 87 | 1015.8 |
| 20260505092032 | 9 | 0 | 0.0 | 4.8 | 0.00 | 0.00 | 0.00 | 86 | 1015.8 |
| 20260505091601 | 9 | 98 | 1.6 | 4.8 | 0.00 | 0.00 | 0.00 | 86 | 1015.7 |
| 20260505091032 | 9 | 0 | 0.0 | 3.2 | 0.00 | 0.00 | 0.00 | 86 | 1015.8 |
| 20260505090532 | 10 | 98 | 0.0 | 3.2 | 0.00 | 0.00 | 0.00 | 85 | 1015.7 |
| 20260505090045 | 10 | 98 | 0.0 | 3.2 | 0.00 | 0.00 | 0.00 | 85 | 1015.6 |
| 20260505085536 | 10 | 98 | 0.0 | 3.2 | 0.00 | 0.00 | 0.00 | 85 | 1015.6 |
| 20260505085033 | 10 | 0 | 0.0 | 3.2 | 0.00 | 0.00 | 0.00 | 84 | 1015.5 |
| 20260505084544 | 10 | 98 | 1.6 | 3.2 | 0.00 | 0.00 | 0.00 | 84 | 1015.4 |
| 20260505084032 | 10 | 98 | 0.0 | 3.2 | 0.00 | 0.00 | 0.00 | 84 | 1015.3 |
| 20260505083531 | 10 | 98 | 0.0 | 3.2 | 0.00 | 0.00 | 0.00 | 83 | 1015.3 |
| 20260505083041 | 10 | 0 | 0.0 | 3.2 | 0.00 | 0.00 | 0.00 | 83 | 1015.2 |
| 20260505082531 | 10 | 0 | 0.0 | 3.2 | 0.00 | 0.00 | 0.00 | 82 | 1015.2 |
| 20260505082031 | 10 | 98 | 0.0 | 3.2 | 0.00 | 0.00 | 0.00 | 81 | 1015.1 |
| 20260505081557 | 11 | 0 | 0.0 | 3.2 | 0.00 | 0.00 | 0.00 | 81 | 1015.0 |
| 20260505081033 | 11 | 98 | 0.0 | 3.2 | 0.00 | 0.00 | 0.00 | 81 | 1014.9 |
| 20260505080531 | 11 | 98 | 0.0 | 3.2 | 0.00 | 0.00 | 0.00 | 79 | 1014.7 |
| 20260505080058 | 11 | 0 | 0.0 | 3.2 | 0.00 | 0.00 | 0.00 | 79 | 1014.6 |
| 20260505075532 | 11 | 0 | 0.0 | 3.2 | 0.00 | 0.00 | 0.00 | 79 | 1014.6 |
| 20260505075032 | 11 | 98 | 0.0 | 3.2 | 0.00 | 0.00 | 0.00 | 79 | 1014.5 |
| 20260505074544 | 11 | 98 | 1.6 | 4.8 | 0.00 | 0.00 | 0.00 | 79 | 1014.6 |
| 20260505074032 | 11 | 98 | 1.6 | 6.4 | 0.00 | 0.00 | 0.00 | 78 | 1014.7 |
| 20260505073532 | 12 | 98 | 1.6 | 6.4 | 0.00 | 0.00 | 0.00 | 78 | 1014.7 |
| 20260505073051 | 12 | 98 | 1.6 | 3.2 | 0.00 | 0.00 | 0.00 | 79 | 1014.5 |
| 20260505072535 | 12 | 0 | 0.0 | 3.2 | 0.00 | 0.00 | 0.00 | 80 | 1014.6 |
| 20260505072031 | 11 | 0 | 0.0 | 1.6 | 0.00 | 0.00 | 0.00 | 80 | 1014.6 |
| 20260505071555 | 11 | 0 | 0.0 | 3.2 | 0.00 | 0.00 | 0.00 | 80 | 1014.6 |
| 20260505071031 | 11 | 0 | 0.0 | 3.2 | 0.00 | 0.00 | 0.00 | 81 | 1014.8 |
| 20260505070534 | 11 | 0 | 0.0 | 3.2 | 0.00 | 0.00 | 0.00 | 80 | 1014.8 |
| 20260505070050 | 11 | 98 | 0.0 | 3.2 | 0.00 | 0.00 | 0.00 | 80 | 1014.9 |
| 20260505065532 | 11 | 98 | 0.0 | 3.2 | 0.00 | 0.00 | 0.00 | 81 | 1014.9 |
| 20260505065032 | 11 | 0 | 0.0 | 3.2 | 0.00 | 0.00 | 0.00 | 80 | 1014.9 |
| 20260505064545 | 11 | 0 | 0.0 | 0.0 | 0.00 | 0.00 | 0.00 | 80 | 1014.9 |
| 20260505064032 | 11 | 0 | 0.0 | 1.6 | 0.00 | 0.00 | 0.00 | 80 | 1015.0 |
| 20260505063532 | 11 | 0 | 0.0 | 3.2 | 0.00 | 0.00 | 0.00 | 80 | 1015.0 |
| 20260505063058 | 11 | 0 | 0.0 | 3.2 | 0.00 | 0.00 | 0.00 | 80 | 1015.0 |
| 20260505062532 | 11 | 98 | 0.0 | 3.2 | 0.00 | 0.00 | 0.00 | 80 | 1015.0 |
| 20260505062032 | 12 | 0 | 0.0 | 3.2 | 0.00 | 0.00 | 0.00 | 80 | 1015.1 |
| 20260505061612 | 12 | 0 | 0.0 | 3.2 | 0.00 | 0.00 | 0.00 | 79 | 1015.0 |
| 20260505061031 | 12 | 98 | 0.0 | 4.8 | 0.00 | 0.00 | 0.00 | 79 | 1015.2 |
| 20260505060534 | 12 | 98 | 0.0 | 4.8 | 0.00 | 0.00 | 0.00 | 79 | 1015.2 |
| 20260505055533 | 12 | 0 | 0.0 | 8.0 | 0.00 | 0.00 | 0.00 | 78 | 1015.2 |
| 20260505055033 | 12 | 337 | 1.6 | 8.0 | 0.00 | 0.00 | 0.00 | 78 | 1015.2 |
| 20260505054554 | 12 | 240 | 0.0 | 12.9 | 0.00 | 0.00 | 0.00 | 77 | 1015.2 |
| 20260505054033 | 12 | 238 | 0.0 | 12.9 | 0.00 | 0.00 | 0.00 | 77 | 1015.2 |
| 20260505053532 | 11 | 251 | 0.0 | 6.4 | 0.00 | 0.00 | 0.00 | 79 | 1015.1 |
| 20260505053046 | 11 | 19 | 1.6 | 6.4 | 0.00 | 0.00 | 0.00 | 79 | 1015.3 |
| 20260505052533 | 12 | 0 | 0.0 | 3.2 | 0.00 | 0.00 | 0.00 | 79 | 1015.3 |
| 20260505052033 | 12 | 86 | 0.0 | 4.8 | 0.00 | 0.00 | 0.00 | 78 | 1015.3 |
| 20260505051610 | 12 | 0 | 0.0 | 4.8 | 0.00 | 0.00 | 0.00 | 78 | 1015.4 |
| 20260505051033 | 12 | 86 | 0.0 | 4.8 | 0.00 | 0.00 | 0.00 | 77 | 1015.3 |
| 20260505050533 | 12 | 0 | 0.0 | 0.0 | 0.00 | 0.00 | 0.00 | 78 | 1015.4 |
| 20260505041550 | 12 | 0 | 0.0 | 0.0 | 0.00 | 0.00 | 0.00 | 74 | 1015.5 |
| 20260505041033 | 12 | 0 | 0.0 | 0.0 | 0.00 | 0.00 | 0.00 | 74 | 1015.5 |
| 20260505040536 | 12 | 0 | 0.0 | 0.0 | 0.00 | 0.00 | 0.00 | 73 | 1015.5 |
| 20260505040053 | 12 | 0 | 0.0 | 0.0 | 0.00 | 0.00 | 0.00 | 73 | 1015.6 |
| 20260505035533 | 13 | 0 | 0.0 | 0.0 | 0.00 | 0.00 | 0.00 | 73 | 1015.5 |
| 20260505035034 | 13 | 0 | 0.0 | 0.0 | 0.00 | 0.00 | 0.00 | 73 | 1015.7 |
| 20260505034546 | 13 | 0 | 0.0 | 0.0 | 0.00 | 0.00 | 0.00 | 72 | 1015.8 |
| 20260505034034 | 13 | 0 | 0.0 | 0.0 | 0.00 | 0.00 | 0.00 | 72 | 1015.6 |
| 20260505033534 | 13 | 0 | 0.0 | 0.0 | 0.00 | 0.00 | 0.00 | 71 | 1015.7 |
| 20260505033048 | 13 | 0 | 0.0 | 0.0 | 0.00 | 0.00 | 0.00 | 70 | 1015.7 |
| 20260505032532 | 13 | 0 | 0.0 | 0.0 | 0.00 | 0.00 | 0.00 | 69 | 1015.7 |
| 20260505032032 | 13 | 0 | 0.0 | 0.0 | 0.00 | 0.00 | 0.00 | 69 | 1015.6 |
| 20260505031553 | 13 | 0 | 0.0 | 0.0 | 0.00 | 0.00 | 0.00 | 68 | 1015.7 |
| 20260505031032 | 13 | 0 | 0.0 | 0.0 | 0.00 | 0.00 | 0.00 | 68 | 1015.6 |
| 20260505030530 | 14 | 0 | 0.0 | 0.0 | 0.00 | 0.00 | 0.00 | 67 | 1015.6 |
| 20260505030049 | 14 | 0 | 0.0 | 0.0 | 0.00 | 0.00 | 0.00 | 67 | 1015.6 |
| 20260505025531 | 14 | 0 | 0.0 | 0.0 | 0.00 | 0.00 | 0.00 | 67 | 1015.7 |
| 20260505025029 | 14 | 0 | 0.0 | 0.0 | 0.00 | 0.00 | 0.00 | 66 | 1015.6 |
| 20260505024551 | 14 | 0 | 0.0 | 0.0 | 0.00 | 0.00 | 0.00 | 65 | 1015.5 |
| 20260505024030 | 15 | 0 | 0.0 | 0.0 | 0.00 | 0.00 | 0.00 | 65 | 1015.6 |
| 20260505023530 | 15 | 0 | 0.0 | 0.0 | 0.00 | 0.00 | 0.00 | 64 | 1015.5 |
| 20260505023044 | 15 | 0 | 0.0 | 0.0 | 0.00 | 0.00 | 0.00 | 64 | 1015.5 |
| 20260505022533 | 15 | 0 | 0.0 | 1.6 | 0.00 | 0.00 | 0.00 | 63 | 1015.5 |
| 20260505022031 | 15 | 0 | 0.0 | 1.6 | 0.00 | 0.00 | 0.00 | 63 | 1015.4 |
| 20260505021544 | 15 | 86 | 0.0 | 1.6 | 0.00 | 0.00 | 0.00 | 62 | 1015.4 |
| 20260505021029 | 15 | 0 | 0.0 | 0.0 | 0.00 | 0.00 | 0.00 | 62 | 1015.4 |
| 20260505020531 | 16 | 0 | 0.0 | 0.0 | 0.00 | 0.00 | 0.00 | 61 | 1015.3 |
| 20260505020057 | 16 | 0 | 0.0 | 0.0 | 0.00 | 0.00 | 0.00 | 61 | 1015.3 |
| 20260505015531 | 16 | 0 | 0.0 | 1.6 | 0.00 | 0.00 | 0.00 | 59 | 1015.2 |
| 20260505015030 | 16 | 0 | 0.0 | 3.2 | 0.00 | 0.00 | 0.00 | 59 | 1015.1 |
| 20260505014551 | 16 | 0 | 0.0 | 3.2 | 0.00 | 0.00 | 0.00 | 58 | 1015.0 |
| 20260505014029 | 17 | 0 | 0.0 | 1.6 | 0.00 | 0.00 | 0.00 | 57 | 1015.0 |
| 20260505013532 | 17 | 86 | 0.0 | 0.0 | 0.00 | 0.00 | 0.00 | 57 | 1015.0 |
| 20260505013046 | 17 | 0 | 0.0 | 0.0 | 0.00 | 0.00 | 0.00 | 53 | 1014.8 |
| 20260505012531 | 17 | 0 | 0.0 | 0.0 | 0.00 | 0.00 | 0.00 | 53 | 1015.0 |
| 20260505012031 | 18 | 0 | 0.0 | 0.0 | 0.00 | 0.00 | 0.00 | 53 | 1014.9 |
| 20260505011544 | 18 | 0 | 0.0 | 0.0 | 0.00 | 0.00 | 0.00 | 52 | 1014.8 |
| 20260505011032 | 18 | 0 | 0.0 | 0.0 | 0.00 | 0.00 | 0.00 | 52 | 1014.8 |
| 20260505010530 | 19 | 0 | 0.0 | 0.0 | 0.00 | 0.00 | 0.00 | 50 | 1014.7 |
| 20260505010053 | 19 | 0 | 0.0 | 0.0 | 0.00 | 0.00 | 0.00 | 47 | 1014.8 |
| 20260505005530 | 19 | 0 | 0.0 | 9.7 | 0.00 | 0.00 | 0.00 | 48 | 1014.5 |
| 20260505005030 | 20 | 0 | 0.0 | 9.7 | 0.00 | 0.00 | 0.00 | 46 | 1014.6 |
| 20260505004541 | 20 | 87 | 0.0 | 9.7 | 0.00 | 0.00 | 0.00 | 47 | 1014.4 |
| 20260505004028 | 20 | 0 | 0.0 | 6.4 | 0.00 | 0.00 | 0.00 | 47 | 1014.5 |
| 20260505003531 | 20 | 0 | 0.0 | 1.6 | 0.00 | 0.00 | 0.00 | 46 | 1014.4 |
| 20260505003041 | 20 | 0 | 0.0 | 3.2 | 0.00 | 0.00 | 0.00 | 46 | 1014.4 |
| 20260505002529 | 20 | 0 | 0.0 | 4.8 | 0.00 | 0.00 | 0.00 | 47 | 1014.4 |
| 20260505002029 | 20 | 0 | 0.0 | 4.8 | 0.00 | 0.00 | 0.00 | 45 | 1014.4 |
| 20260505001544 | 20 | 53 | 0.0 | 3.2 | 0.00 | 0.00 | 0.00 | 46 | 1014.3 |
| 20260505001029 | 20 | 0 | 0.0 | 0.0 | 0.00 | 0.00 | 0.00 | 47 | 1014.3 |
| 20260505000530 | 21 | 0 | 0.0 | 0.0 | 0.00 | 0.00 | 0.00 | 45 | 1014.2 |
| 20260505000049 | 21 | 0 | 0.0 | 0.0 | 0.00 | 0.00 | 0.00 | 44 | 1014.2 |
| 20260504235531 | 21 | 0 | 0.0 | 0.0 | 0.00 | 0.00 | 0.00 | 43 | 1014.2 |
| 20260504235032 | 21 | 0 | 0.0 | 1.6 | 0.00 | 0.00 | 0.00 | 42 | 1014.1 |
| 20260504234550 | 22 | 0 | 0.0 | 1.6 | 0.00 | 0.00 | 0.00 | 42 | 1014.1 |
| 20260504234030 | 22 | 0 | 0.0 | 6.4 | 0.00 | 0.00 | 0.00 | 42 | 1014.1 |
| 20260504233532 | 22 | 0 | 0.0 | 6.4 | 0.00 | 0.00 | 0.00 | 44 | 1014.0 |
| 20260504233103 | 22 | 0 | 0.0 | 3.2 | 0.00 | 0.00 | 0.00 | 43 | 1013.9 |
| 20260504232532 | 22 | 0 | 0.0 | 1.6 | 0.00 | 0.00 | 0.00 | 43 | 1013.7 |
| 20260504232033 | 22 | 0 | 0.0 | 4.8 | 0.00 | 0.00 | 0.00 | 42 | 1013.8 |
| 20260504231545 | 23 | 0 | 0.0 | 4.8 | 0.00 | 0.00 | 0.00 | 41 | 1013.7 |
| 20260504231031 | 23 | 0 | 0.0 | 0.0 | 0.00 | 0.00 | 0.00 | 40 | 1013.8 |
| 20260504230533 | 23 | 0 | 0.0 | 1.6 | 0.00 | 0.00 | 0.00 | 39 | 1013.7 |
| 20260504230054 | 23 | 0 | 0.0 | 4.8 | 0.00 | 0.00 | 0.00 | 39 | 1013.6 |
| 20260504225535 | 23 | 0 | 0.0 | 6.4 | 0.00 | 0.00 | 0.00 | 38 | 1013.8 |
| 20260504225032 | 23 | 0 | 0.0 | 6.4 | 0.00 | 0.00 | 0.00 | 38 | 1013.7 |
| 20260504224552 | 23 | 0 | 0.0 | 9.7 | 0.00 | 0.00 | 0.00 | 38 | 1013.8 |
| 20260504224033 | 24 | 0 | 0.0 | 9.7 | 0.00 | 0.00 | 0.00 | 37 | 1013.7 |
| 20260504223533 | 24 | 0 | 0.0 | 9.7 | 0.00 | 0.00 | 0.00 | 35 | 1013.8 |
| 20260504223048 | 24 | 0 | 0.0 | 6.4 | 0.00 | 0.00 | 0.00 | 37 | 1013.8 |
| 20260504222535 | 25 | 0 | 0.0 | 6.4 | 0.00 | 0.00 | 0.00 | 37 | 1013.9 |
| 20260504222033 | 25 | 0 | 0.0 | 11.3 | 0.00 | 0.00 | 0.00 | 37 | 1013.9 |
| 20260504221544 | 25 | 0 | 0.0 | 11.3 | 0.00 | 0.00 | 0.00 | 36 | 1013.9 |
| 20260504221032 | 25 | 0 | 0.0 | 0.0 | 0.00 | 0.00 | 0.00 | 38 | 1013.9 |
| 20260504220532 | 25 | 0 | 0.0 | 6.4 | 0.00 | 0.00 | 0.00 | 36 | 1013.9 |
| 20260504220054 | 25 | 0 | 0.0 | 6.4 | 0.00 | 0.00 | 0.00 | 37 | 1013.9 |
| 20260504215536 | 25 | 0 | 0.0 | 4.8 | 0.00 | 0.00 | 0.00 | 37 | 1013.9 |
| 20260504215030 | 25 | 0 | 0.0 | 6.4 | 0.00 | 0.00 | 0.00 | 35 | 1013.9 |
| 20260504214554 | 25 | 0 | 0.0 | 6.4 | 0.00 | 0.00 | 0.00 | 36 | 1013.9 |
| 20260504214032 | 25 | 0 | 0.0 | 6.4 | 0.00 | 0.00 | 0.00 | 35 | 1013.8 |
| 20260504213533 | 25 | 0 | 0.0 | 6.4 | 0.00 | 0.00 | 0.00 | 36 | 1013.9 |
| 20260504213047 | 26 | 0 | 1.6 | 6.4 | 0.00 | 0.00 | 0.00 | 35 | 1013.9 |